TimeAST,TemperatureF,Dew PointF,Humidity,Sea Level PressureIn,VisibilityMPH,Wind Direction,Wind SpeedMPH,Gust SpeedMPH,PrecipitationIn,Events,Conditions,WindDirDegrees,DateUTC
12:00 AM,10.4,-5.8,48,30.25,15.0,WSW,6.9,-,N/A,,Scattered Clouds,240,2014-01-29 04:00:00
1:00 AM,10.4,-5.8,48,30.26,15.0,SW,6.9,-,N/A,,Partly Cloudy,230,2014-01-29 05:00:00
2:00 AM,10,-6,33,30.26,15,WSW,5.8,,,,Clear,240,2014-01-29 06:00:00
2:00 AM,8.6,-5.8,52,30.26,15.0,WSW,5.8,-,N/A,,Scattered Clouds,240,2014-01-29 06:00:00
3:00 AM,8.6,-5.8,52,30.25,15.0,SSW,5.8,-,N/A,,Scattered Clouds,210,2014-01-29 07:00:00
4:00 AM,10.4,-4.0,52,30.25,15.0,WSW,4.6,-,N/A,,Mostly Cloudy,240,2014-01-29 08:00:00
5:00 AM,10.4,-4.0,52,30.24,15.0,SSW,3.5,-,N/A,,Mostly Cloudy,200,2014-01-29 09:00:00
6:00 AM,10.4,-0.4,62,30.23,15.0,SE,5.8,-,N/A,,Mostly Cloudy,140,2014-01-29 10:00:00
7:00 AM,12.2,5.0,73,30.21,15.0,SSE,5.8,-,N/A,,Overcast,150,2014-01-29 11:00:00
8:00 AM,13,2,46,30.18,15,SE,9.2,,,,Overcast,140,2014-01-29 12:00:00
8:00 AM,14.0,1.4,57,30.18,15.0,SSE,10.4,-,N/A,,Overcast,150,2014-01-29 12:00:00
9:00 AM,14.0,1.4,57,30.15,15.0,SE,8.1,-,N/A,,Overcast,140,2014-01-29 13:00:00
10:00 AM,14.0,1.4,57,30.12,15.0,SSE,10.4,-,N/A,,Overcast,150,2014-01-29 14:00:00
11:00 AM,15.8,-0.4,49,30.08,15.0,SSE,11.5,-,N/A,,Overcast,160,2014-01-29 15:00:00
11:18 AM,14.0,1.4,57,30.06,10.0,SE,12.7,-,N/A,Snow,Light Snow Showers,140,2014-01-29 15:18:00
11:32 AM,14.0,6.8,73,30.07,3.0,SSE,12.7,-,N/A,Snow,Light Snow Showers,160,2014-01-29 15:32:00
12:00 PM,12.2,8.6,85,30.01,2.0,SE,9.2,-,N/A,Snow,Light Snow Showers,130,2014-01-29 16:00:00
12:18 PM,12.2,10.4,92,30.01,1.5,SE,10.4,-,N/A,Snow,Light Snow Showers,140,2014-01-29 16:18:00
1:00 PM,14.0,10.4,86,29.99,2.5,SE,10.4,-,N/A,Snow,Light Snow Showers,140,2014-01-29 17:00:00
1:18 PM,14.0,10.4,86,29.97,0.8,SE,9.2,-,N/A,Snow,Light Snow Showers,130,2014-01-29 17:18:00
2:00 PM,13,10,83,29.95,1,SSE,11.5,,,Snow,Light Snow Showers,150,2014-01-29 18:00:00
2:00 PM,14.0,10.4,86,29.95,0.8,SSE,11.5,-,N/A,Snow,Light Snow Showers,150,2014-01-29 18:00:00
3:00 PM,14.0,10.4,86,29.92,1.5,SSE,10.4,-,N/A,Snow,Light Snow Showers,160,2014-01-29 19:00:00
3:41 PM,14.0,10.4,86,29.91,2.5,SSE,8.1,-,N/A,Snow,Light Snow Showers,160,2014-01-29 19:41:00
4:00 PM,14.0,10.4,86,29.90,2.5,SSE,8.1,-,N/A,Snow,Light Snow Showers,150,2014-01-29 20:00:00
5:00 PM,14.0,10.4,86,29.88,2.5,SE,6.9,-,N/A,Snow,Light Snow Showers,140,2014-01-29 21:00:00
5:34 PM,14.0,10.4,86,29.87,10.0,SSE,6.9,-,N/A,Snow,Light Snow Showers,160,2014-01-29 21:34:00
6:00 PM,14.0,10.4,86,29.86,12.0,South,6.9,-,N/A,Snow,Light Snow Showers,170,2014-01-29 22:00:00
7:00 PM,14.0,12.2,93,29.86,12.0,South,5.8,-,N/A,Snow,Light Snow Showers,190,2014-01-29 23:00:00
8:00 PM,13,11,89,29.86,12,South,6.9,,,Snow,Light Snow Showers,190,2014-01-30 00:00:00
8:00 PM,14.0,12.2,93,29.86,12.0,SSW,5.8,-,N/A,Snow,Light Snow Showers,200,2014-01-30 00:00:00
9:00 PM,14.0,12.2,93,29.87,4.0,SSW,9.2,-,N/A,Snow,Light Snow Showers,200,2014-01-30 01:00:00
9:10 PM,14.0,12.2,93,29.86,3.0,SSW,6.9,-,N/A,Snow,Light Snow Showers,200,2014-01-30 01:10:00
10:00 PM,14.0,12.2,93,29.88,5.0,SSW,6.9,-,N/A,Snow,Light Snow Showers,200,2014-01-30 02:00:00
10:46 PM,14.0,10.4,86,29.88,15.0,SSW,5.8,-,N/A,,Mostly Cloudy,210,2014-01-30 02:46:00
11:00 PM,14.0,12.2,93,29.89,15.0,SW,6.9,-,N/A,,Mostly Cloudy,230,2014-01-30 03:00:00